Weather History for Monarch Pass, CO

Change the Weather History Date:

Wednesday, November 21, 2012

  Actual Average (KGUC) Record (KGUC)
Temperature  
Mean Temperature 32 °F -  
Max Temperature 37 °F 36 °F 53 °F (2008)
Min Temperature 26 °F 11 °F -2 °F (2000)
Degree Days  
Heating Degree Days 34    
Moisture  
Dew Point 4 °F    
Average Humidity 34    
Maximum Humidity 51    
Minimum Humidity 20    
Precipitation  
Precipitation 0.00 in - - ()
Sea Level Pressure  
Sea Level Pressure 30.42 in    
Wind  
Wind Speed 31 mph (West)    
Max Wind Speed 40 mph    
Max Gust Speed 48 mph    
Averages and records for this station are not official NWS values.
T = Trace of Precipitation, MM = Missing Value Source: NWS Daily Summary

Daily Weather History Graph

Daily Weather History Graph

Search for Another Location

Airport:

Trip Planner

Search our weather history database for the weather conditions in past years. The results will help you decide how hot, cold, wet, or windy it might be!

Date:

Astronomy

Nov. 21, 2012 Rise Set
Actual Time 6:54 AM MST 4:48 PM MST
Civil Twilight 6:25 AM MST 5:16 PM MST
Nautical Twilight 5:52 AM MST 5:49 PM MST
Astronomical Twilight 5:21 AM MST 6:20 PM MST
Moon 1:01 PM MST (11/21) 12:20 AM MST (11/21)
Length of Visible Light 10h 51m
Length of Day
9h 54m
Waxing Gibbous, 62% of the Moon is Illuminated
Nov 21
Waxing Gibbous
Nov 28
Full
Dec 6
Last Quarter
Dec 13
New
Dec 19
First Quarter

Hourly Weather History & Observations

Time (MST) Temp. Windchill Dew Point Humidity Pressure Visibility Wind Dir Wind Speed Gust Speed Precip Events Conditions
12:15 AM 28.4 °F 13.3 °F 10.4 °F 47% 30.51 in - West 27.6 mph - N/A   Clear
12:35 AM 30.2 °F 15.9 °F 10.4 °F 44% 30.51 in - WSW 26.5 mph - N/A   Clear
12:55 AM 28.4 °F 13.0 °F 10.4 °F 47% 30.50 in - West 28.8 mph - N/A   Clear
1:15 AM 28.4 °F 13.0 °F 10.4 °F 47% 30.49 in - West 28.8 mph - N/A   Clear
1:35 AM 28.4 °F 12.5 °F 10.4 °F 47% 30.48 in - West 31.1 mph - N/A   Clear
1:55 AM 28.4 °F 12.7 °F 10.4 °F 47% 30.48 in - WSW 29.9 mph - N/A   Clear
2:15 AM 28.4 °F 12.5 °F 10.4 °F 47% 30.47 in - West 31.1 mph - N/A   Clear
2:35 AM 28.4 °F 12.5 °F 10.4 °F 47% 30.48 in - WSW 31.1 mph - N/A   Clear
2:55 AM 28.4 °F 12.5 °F 10.4 °F 47% 30.47 in - West 31.1 mph - N/A   Clear
3:15 AM 28.4 °F 12.3 °F 10.4 °F 47% 30.47 in - WSW 32.2 mph 36.8 mph N/A   Clear
3:35 AM 26.6 °F 9.6 °F 10.4 °F 51% 30.46 in - West 33.4 mph 38.0 mph N/A   Clear
3:55 AM 26.6 °F 9.6 °F 10.4 °F 51% 30.45 in - West 33.4 mph - N/A   Clear
4:15 AM 26.6 °F 9.3 °F 10.4 °F 51% 30.45 in - West 34.5 mph - N/A   Clear
4:35 AM 26.6 °F 8.9 °F 10.4 °F 51% 30.45 in - West 36.8 mph - N/A   Clear
4:55 AM 26.6 °F 9.3 °F 10.4 °F 51% 30.45 in - West 34.5 mph - N/A   Clear
5:15 AM 28.4 °F 11.8 °F 10.4 °F 47% 30.45 in - West 34.5 mph - N/A   Clear
5:35 AM 28.4 °F 12.0 °F 10.4 °F 47% 30.44 in - West 33.4 mph - N/A   Clear
5:55 AM 28.4 °F 12.0 °F 10.4 °F 47% 30.44 in - West 33.4 mph - N/A   Clear
6:15 AM 26.6 °F 9.8 °F 8.6 °F 47% 30.44 in - West 32.2 mph - N/A   Clear
6:35 AM 28.4 °F 12.5 °F 6.8 °F 40% 30.44 in - West 31.1 mph - N/A   Clear
6:55 AM 28.4 °F 12.3 °F 5.0 °F 37% 30.45 in - West 32.2 mph 35.7 mph N/A   Clear
7:15 AM 28.4 °F 11.6 °F 5.0 °F 37% 30.45 in - West 35.7 mph - N/A   Clear
7:35 AM 28.4 °F 11.8 °F 5.0 °F 37% 30.45 in - West 34.5 mph 38.0 mph N/A   Clear
7:55 AM 28.4 °F 11.6 °F 3.2 °F 34% 30.45 in - West 35.7 mph - N/A   Clear
8:15 AM 28.4 °F 12.0 °F 3.2 °F 34% 30.45 in - West 33.4 mph - N/A   Clear
8:35 AM 30.2 °F 14.3 °F 3.2 °F 32% 30.45 in - West 34.5 mph 38.0 mph N/A   Clear
8:55 AM 30.2 °F 14.9 °F 3.2 °F 32% 30.45 in - West 31.1 mph - N/A   Clear
9:15 AM 30.2 °F 15.4 °F 3.2 °F 32% 30.46 in - West 28.8 mph - N/A   Clear
9:35 AM 30.2 °F 15.9 °F 5.0 °F 34% 30.47 in - West 26.5 mph 32.2 mph N/A   Clear
9:55 AM 32.0 °F 17.9 °F 5.0 °F 32% 30.46 in - West 28.8 mph 34.5 mph N/A   Clear
10:15 AM 32.0 °F 18.4 °F 3.2 °F 30% 30.47 in - West 26.5 mph - N/A   Clear
10:35 AM 32.0 °F 18.9 °F 3.2 °F 30% 30.47 in - West 24.2 mph 34.5 mph N/A   Clear
10:55 AM 33.8 °F 20.3 °F 3.2 °F 28% 30.46 in - West 28.8 mph - N/A   Clear
11:15 AM 33.8 °F 20.5 °F 3.2 °F 28% 30.45 in - WSW 27.6 mph 35.7 mph N/A   Clear
11:35 AM 33.8 °F 21.6 °F 3.2 °F 28% 30.44 in - West 23.0 mph 29.9 mph N/A   Clear
11:55 AM 35.6 °F 24.2 °F 5.0 °F 28% 30.43 in - SW 21.9 mph 29.9 mph N/A   Clear
12:15 PM 35.6 °F 23.4 °F 3.2 °F 26% 30.42 in - WSW 25.3 mph 34.5 mph N/A   Clear
12:35 PM 35.6 °F 22.3 °F 1.4 °F 24% 30.41 in - West 31.1 mph 39.1 mph N/A   Clear
12:55 PM 35.6 °F 21.9 °F 1.4 °F 24% 30.40 in - West 33.4 mph 40.3 mph N/A   Clear
1:15 PM 35.6 °F 21.7 °F -0.4 °F 22% 30.39 in - West 34.5 mph 40.3 mph N/A   Clear
1:35 PM 35.6 °F 21.9 °F -0.4 °F 22% 30.39 in - West 33.4 mph 41.4 mph N/A   Clear
1:55 PM 37.4 °F 25.9 °F -0.4 °F 20% 30.39 in - West 25.3 mph 42.6 mph N/A   Clear
2:15 PM 37.4 °F 25.6 °F -0.4 °F 20% 30.39 in - WSW 26.5 mph 36.8 mph N/A   Clear
2:35 PM 37.4 °F 24.0 °F -0.4 °F 20% 30.39 in - West 35.7 mph 42.6 mph N/A   Clear
2:55 PM 37.4 °F 24.4 °F -0.4 °F 20% 30.38 in - West 33.4 mph 40.3 mph N/A   Clear
3:15 PM 37.4 °F 24.6 °F -0.4 °F 20% 30.38 in - West 32.2 mph 39.1 mph N/A   Clear
3:35 PM 35.6 °F 21.1 °F -2.2 °F 20% 30.37 in - West 38.0 mph 48.3 mph N/A   Clear
3:55 PM 35.6 °F 20.8 °F -0.4 °F 22% 30.37 in - West 40.3 mph 48.3 mph N/A   Clear
4:15 PM 33.8 °F 20.3 °F -0.4 °F 23% 30.37 in - WSW 28.8 mph 39.1 mph N/A   Clear
4:35 PM 32.0 °F 17.9 °F 1.4 °F 27% 30.38 in - WSW 28.8 mph 41.4 mph N/A   Clear
4:55 PM 32.0 °F 17.4 °F 3.2 °F 30% 30.37 in - WSW 31.1 mph 36.8 mph N/A   Clear
5:15 PM 32.0 °F 17.6 °F 3.2 °F 30% 30.37 in - WSW 29.9 mph 33.4 mph N/A   Clear
5:35 PM 32.0 °F 16.7 °F 3.2 °F 30% 30.38 in - West 34.5 mph - N/A   Clear
5:55 PM 32.0 °F 16.5 °F 3.2 °F 30% 30.37 in - West 35.7 mph - N/A   Clear
6:15 PM 32.0 °F 16.5 °F 1.4 °F 27% 30.37 in - West 35.7 mph 41.4 mph N/A   Clear
6:35 PM 32.0 °F 17.2 °F 1.4 °F 27% 30.38 in - West 32.2 mph - N/A   Clear
6:55 PM 30.2 °F 14.7 °F 1.4 °F 29% 30.38 in - West 32.2 mph - N/A   Clear
7:15 PM 30.2 °F 14.3 °F 1.4 °F 29% 30.37 in - West 34.5 mph - N/A   Clear
7:35 PM 30.2 °F 13.9 °F 1.4 °F 29% 30.37 in - West 36.8 mph - N/A   Clear
7:55 PM 30.2 °F 14.3 °F 1.4 °F 29% 30.37 in - West 34.5 mph 41.4 mph N/A   Clear
8:15 PM 30.2 °F 14.7 °F 1.4 °F 29% 30.37 in - West 32.2 mph - N/A   Clear
8:35 PM 30.2 °F 14.3 °F 1.4 °F 29% 30.37 in - West 34.5 mph 41.4 mph N/A   Clear
8:55 PM 30.2 °F 14.3 °F 1.4 °F 29% 30.36 in - West 34.5 mph 40.3 mph N/A   Clear
9:15 PM 30.2 °F 13.9 °F 3.2 °F 32% 30.36 in - West 36.8 mph 42.6 mph N/A   Clear
9:35 PM 30.2 °F 13.3 °F 3.2 °F 32% 30.35 in - West 40.3 mph 44.9 mph N/A   Clear
9:55 PM 28.4 °F 12.0 °F 3.2 °F 34% 30.36 in - WSW 33.4 mph 39.1 mph N/A   Clear
10:15 PM 28.4 °F 11.6 °F 3.2 °F 34% 30.35 in - West 35.7 mph 40.3 mph N/A   Clear
10:35 PM 28.4 °F 11.6 °F 3.2 °F 34% 30.35 in - West 35.7 mph - N/A   Clear
10:55 PM 28.4 °F 11.4 °F 3.2 °F 34% 30.34 in - West 36.8 mph 41.4 mph N/A   Clear
11:15 PM 28.4 °F 11.4 °F 3.2 °F 34% 30.34 in - West 36.8 mph 41.4 mph N/A   Clear
11:35 PM 26.6 °F 8.9 °F 3.2 °F 37% 30.33 in - West 36.8 mph 43.7 mph N/A   Clear
11:55 PM 26.6 °F 8.7 °F 3.2 °F 37% 30.33 in - West 38.0 mph 46.0 mph N/A   Clear